RH
61 75 81 90 100 96 94 98 101 98 101 104 97 90 85 75 66 65 70 72 69 61 51 50 64 75 74 67 61 54 51 49 41 46 57 64 72 72 73 69 63 61 63 63 55 52 58 72 86 84 85 89 78 67 65 63 59 54 47 43 38 36
94 101 101 100 100 94 96 99 94 91 98 104 100 97 96 81 72 76 76 72 72 72 67 60 62 74 82 80 75 65 56 57 49 42 50 58 66 70 69 66 64 67 70 66 55 49 48 61 81 82 84 91 82 71 68 65 61 55 49 43 38 36
100 102 104 99 98 103 101 91 86 89 97 103 103 103 102 95 90 92 88 83 81 79 77 72 72 77 83 85 84 82 69 64 61 48 46 54 61 65 66 70 75 75 73 68 57 50 46 54 72 82 88 90 81 75 72 67 62 58 51 44 41 39
90 96 104 100 98 104 97 85 86 95 101 100 100 102 102 102 104 104 102 101 98 95 88 77 78 83 90 96 96 98 85 69 70 63 53 54 58 62 63 69 81 83 78 72 61 53 48 51 66 81 89 87 80 78 75 69 64 61 54 46 44 44
86 93 101 102 101 99 83 75 85 93 95 96 98 101 102 101 105 107 105 105 104 105 103 92 91 93 93 101 102 102 94 77 75 77 69 64 62 63 64 68 81 87 85 80 68 57 51 50 61 79 86 85 82 79 75 71 68 63 57 51 47 46
99 99 99 99 103 100 77 61 75 92 97 100 97 93 98 102 102 102 100 103 105 102 100 98 99 99 95 101 105 102 100 93 85 82 78 77 75 70 65 69 82 90 91 87 74 61 53 49 57 75 85 89 87 81 76 73 70 66 60 55 47 44
101 101 97 97 100 102 90 72 73 89 98 96 87 85 94 101 101 99 99 102 106 97 85 86 95 100 99 101 106 102 102 102 92 85 82 83 85 82 76 77 85 92 94 90 78 64 56 52 56 70 86 97 94 85 80 74 72 70 64 56 46 41
102 98 99 101 101 99 98 93 86 89 95 93 90 91 94 99 100 93 93 99 105 95 75 80 96 103 103 102 105 103 101 104 98 91 88 84 85 89 88 88 90 93 94 91 79 66 59 56 56 63 79 95 99 93 85 78 76 73 66 56 44 41
87 79 87 87 88 93 94 91 93 99 99 97 99 98 96 97 86 78 89 99 102 91 76 88 98 98 103 103 103 103 103 105 103 97 93 90 86 87 90 92 93 94 93 88 78 68 60 55 55 58 67 81 96 99 90 82 79 75 66 54 44 43
54 50 59 55 56 80 98 90 85 99 101 100 103 99 102 95 72 76 95 100 103 97 90 96 92 93 103 102 102 104 102 102 103 101 98 97 94 91 93 95 94 93 89 84 77 68 59 54 54 57 62 71 87 96 92 86 80 73 63 52 46 45
38 38 38 35 37 62 92 83 68 81 89 92 97 98 105 93 71 85 99 97 105 106 98 94 87 92 102 102 101 102 102 101 101 101 99 100 99 97 98 97 95 95 90 81 74 67 62 59 58 61 65 69 76 83 91 90 79 68 61 53 47 45
32 31 26 26 33 59 86 76 62 70 73 75 85 96 104 94 84 94 100 97 98 94 87 83 84 90 96 100 100 101 103 102 101 101 99 100 99 99 100 94 89 93 93 85 77 74 74 73 70 70 74 73 69 78 94 91 71 62 60 55 50 46
25 24 27 23 24 61 92 84 73 73 76 83 93 99 98 96 96 97 95 91 84 77 76 78 83 89 91 96 99 103 105 102 102 101 100 99 98 98 95 86 81 91 100 94 90 91 93 90 82 81 87 84 78 88 98 81 61 59 60 57 52 47
24 24 29 25 33 72 96 95 89 85 90 96 100 99 96 100 101 99 95 87 79 73 76 78 81 82 83 90 97 103 107 106 104 102 103 100 97 98 96 91 91 98 103 100 98 102 106 100 91 94 99 95 94 98 90 67 54 56 58 56 53 51
25 28 27 29 60 90 92 100 99 94 101 99 100 100 98 101 98 101 103 94 86 81 82 80 76 75 76 87 95 96 99 104 106 104 104 102 100 101 99 99 101 103 102 101 102 103 107 105 101 105 106 102 100 93 73 55 49 50 54 54 53 56
26 30 30 31 59 69 64 92 98 90 99 97 97 98 97 99 95 99 104 98 90 86 86 80 70 68 70 78 86 89 94 101 106 105 103 102 102 101 100 101 102 102 102 102 103 103 105 105 106 106 102 99 92 77 59 48 46 46 52 55 55 58
30 30 34 39 58 59 56 87 98 91 95 91 90 93 94 98 96 96 98 97 95 91 85 73 64 69 76 80 85 93 98 101 104 103 103 102 101 100 99 101 102 102 103 103 103 103 101 98 98 94 88 85 76 63 50 43 45 49 54 58 59 61
38 36 40 45 58 73 83 97 99 96 96 91 93 96 96 99 97 97 97 97 99 94 80 68 72 86 93 93 96 101 98 99 102 101 101 101 100 102 99 99 104 105 104 101 98 97 94 86 81 77 71 67 61 53 45 44 48 53 59 62 63 65
43 43 44 46 52 73 99 103 97 99 100 100 101 98 99 100 96 98 101 99 101 95 80 78 92 100 99 98 103 106 99 96 100 101 102 100 100 101 96 95 102 104 102 98 94 93 87 76 69 64 59 57 53 46 44 51 58 61 66 70 72 71
39 41 40 45 47 59 86 98 97 99 100 102 102 97 98 97 93 99 102 102 103 94 85 93 103 101 98 101 104 105 102 99 100 100 98 97 100 102 97 94 96 98 99 98 93 84 72 61 55 53 53 54 51 48 55 68 74 74 78 81 80 77
29 33 34 41 45 53 78 99 101 98 102 103 99 99 97 94 96 101 101 102 104 95 90 98 102 101 101 101 101 102 102 100 102 103 98 98 99 100 101 99 99 98 94 89 80 70 64 58 55 57 62 62 60 65 77 86 89 90 92 91 89 88
21 24 27 33 41 51 70 95 101 96 103 102 100 104 97 94 99 97 90 89 96 91 82 81 85 98 104 97 99 103 98 93 95 94 94 99 100 101 104 101 102 103 97 90 85 82 82 83 84 86 87 84 82 87 95 97 98 101 100 98 99 99
18 18 21 24 33 43 53 76 92 98 106 101 104 109 98 97 96 91 87 79 87 87 73 67 65 75 88 88 94 93 87 93 98 92 86 87 89 96 105 102 102 105 104 101 98 98 98 99 101 101 101 100 96 97 99 99 100 104 104 101 102 101
19 16 18 19 24 32 37 52 67 82 92 90 99 102 95 101 89 86 93 78 83 88 74 74 69 69 81 86 88 78 68 76 88 94 96 93 90 94 100 100 101 103 105 104 100 100 101 101 102 99 100 102 100 98 98 98 101 106 107 101 101 102
19 17 18 18 19 24 26 34 44 56 65 67 82 89 92 103 87 84 98 84 84 89 81 88 90 88 93 86 80 81 77 71 66 68 76 87 95 99 100 99 100 100 102 104 101 102 101 101 102 99 100 101 100 99 98 99 102 104 104 100 100 101
20 16 17 17 18 21 21 24 29 37 47 50 67 88 94 99 90 86 99 99 96 94 92 101 101 98 96 83 77 90 98 88 72 60 60 80 95 99 101 100 101 100 99 101 100 100 99 100 101 99 99 102 101 100 99 100 101 100 102 103 101 99
19 17 18 17 17 18 18 21 23 24 33 35 54 89 99 96 97 93 98 108 106 100 100 101 101 101 100 91 81 92 106 99 86 74 70 85 96 98 101 100 99 100 100 101 100 100 99 98 100 100 100 102 101 100 100 100 102 103 105 104 102 101
21 19 18 17 17 19 17 17 20 20 24 26 38 73 94 97 104 101 96 105 108 105 101 93 92 98 101 99 88 87 99 99 92 81 69 70 80 92 100 100 101 101 99 100 99 101 101 99 100 100 101 101 101 101 102 103 105 107 107 103 102 102
17 18 20 20 15 13 18 18 18 20 21 25 31 53 84 97 102 105 99 101 106 103 97 87 85 88 91 97 94 87 86 83 78 71 59 53 59 74 86 93 100 102 102 102 101 103 103 102 101 100 102 103 102 102 101 101 103 105 104 101 101 101
33 56 64 66 49 19 16 18 14 20 23 26 28 40 78 100 98 102 101 100 101 94 91 89 83 78 72 73 78 83 82 76 68 60 52 45 44 53 63 75 82 82 83 87 93 98 98 98 98 99 101 100 97 96 96 97 100 101 101 101 101 100
77 95 92 102 89 32 10 22 32 51 53 47 39 33 61 94 99 101 102 99 94 90 94 93 81 70 58 51 55 63 68 69 67 60 50 41 36 39 47 55 60 64 75 85 92 95 95 95 94 95 96 94 94 96 99 101 101 100 100 102 101 98
101 98 92 103 88 36 31 60 81 96 90 85 84 66 67 88 98 101 99 92 90 98 103 92 79 68 52 41 40 44 50 53 54 51 44 36 31 32 37 42 48 62 82 96 99 98 99 99 97 97 97 96 98 100 102 103 102 102 103 102 99 93
101 96 100 101 80 60 78 96 101 106 97 96 106 100 96 101 101 97 92 91 99 109 105 91 82 71 53 40 30 29 35 36 36 37 33 28 27 29 34 40 48 61 78 94 100 100 100 100 100 101 101 101 101 100 101 102 102 105 104 99 93 85
99 97 102 89 73 84 101 99 101 108 99 94 100 101 103 107 107 100 96 100 106 105 98 94 91 77 65 55 36 26 28 29 30 30 29 29 27 28 31 38 46 54 71 92 100 99 99 100 101 101 100 101 100 100 101 101 103 105 100 94 86 76
98 101 101 79 74 95 100 94 105 110 98 94 100 101 96 98 104 102 101 104 104 102 100 98 94 85 80 69 46 31 30 33 35 31 32 33 30 31 34 35 38 46 67 92 100 100 100 100 100 101 101 100 100 101 101 101 102 100 94 89 80 66
98 102 98 80 85 102 95 91 103 104 94 92 99 103 97 95 101 99 99 102 101 103 101 94 91 91 89 74 49 37 35 39 44 43 40 38 34 36 37 36 42 55 76 96 101 100 100 100 100 100 100 101 101 101 101 101 100 95 91 85 72 59
98 101 100 94 96 101 94 96 104 98 90 93 101 105 99 97 101 98 99 102 100 99 97 93 94 94 89 72 51 43 43 40 39 38 38 38 35 35 41 51 59 65 79 95 102 102 100 100 100 100 101 102 102 101 101 101 97 92 86 73 59 52
Wind_Speed
36 34 35 33 32 31 30 30 32 35 37 38 37 36 38 40 41 40 39 39 39 38 39 40 40 40 41 41 41 41 39 39 40 40 39 37 33 29 26 26 27 29 29 29 29 29 28 26 26 27 26 26 26 25 25 27 28 30 31 31 31 30
30 31 34 35 35 34 33 33 35 37 38 38 38 39 41 42 42 42 41 42 43 41 41 41 41 42 42 42 42 42 42 40 41 41 40 37 34 30 27 27 29 29 29 30 31 31 29 27 27 28 27 26 26 25 25 27 29 30 31 30 30 30
33 35 36 37 37 36 35 35 35 36 36 36 38 41 42 43 43 42 43 45 46 46 45 44 44 44 43 43 43 44 44 42 41 41 40 37 34 31 29 29 30 30 30 32 33 31 28 27 28 28 26 26 26 25 25 27 29 30 30 29 29 29
42 41 38 38 38 36 35 34 32 31 33 35 38 42 43 42 42 42 45 47 49 51 50 48 46 45 44 44 44 44 44 43 41 41 40 38 35 32 31 30 31 31 32 34 33 31 29 28 28 27 26 25 26 25 26 28 29 30 29 28 28 28
40 39 37 38 38 37 37 34 31 31 34 36 39 43 44 43 43 45 48 49 51 52 52 50 47 46 44 44 46 45 43 42 41 40 39 37 35 33 31 31 32 32 33 34 33 32 30 30 29 27 26 26 27 27 26 28 29 30 29 27 27 26
36 36 35 36 37 38 38 36 33 33 35 38 40 43 44 45 45 47 49 50 50 51 51 49 47 46 45 45 46 45 42 41 41 40 39 36 33 32 31 31 33 33 33 33 33 33 33 32 31 28 28 28 29 29 27 28 30 30 29 27 26 25
37 35 34 33 34 35 37 37 36 36 38 41 41 43 45 46 47 49 51 50 48 50 50 47 46 46 45 44 44 43 42 41 41 40 38 35 32 31 31 31 33 33 33 33 35 36 35 34 32 29 29 29 30 30 29 29 30 30 30 28 26 25
35 34 36 36 36 37 38 37 37 39 40 42 42 43 46 46 48 50 52 50 48 48 45 42 44 45 43 42 42 42 42 42 41 39 38 36 33 32 32 32 32 32 34 35 36 37 36 34 32 30 30 30 30 30 30 29 30 30 29 28 25 24
42 42 43 43 43 43 42 39 39 40 41 41 43 44 45 46 48 49 49 48 45 42 39 39 43 44 43 42 42 42 41 41 40 38 37 36 35 34 33 32 31 32 34 36 37 36 35 34 33 31 31 31 31 31 31 30 30 29 28 27 25 24
50 49 48 48 46 45 43 39 40 42 42 43 44 45 45 47 48 47 45 42 39 37 37 40 42 43 44 44 42 41 40 40 39 38 37 36 35 33 32 31 31 31 34 35 35 35 34 35 34 33 32 32 32 32 32 31 30 29 28 27 25 24
51 51 50 49 47 46 44 41 42 44 45 46 46 46 46 47 47 44 41 38 37 38 40 42 42 41 42 43 42 40 39 39 38 38 37 35 34 33 31 31 31 31 33 33 33 34 34 35 36 34 32 32 32 32 32 31 30 29 28 26 25 24
51 51 51 50 48 48 46 44 44 45 47 48 48 47 45 45 43 40 38 37 38 39 41 42 41 40 40 41 42 41 40 40 40 39 37 36 35 34 32 32 32 32 33 32 33 34 34 35 36 35 33 32 32 32 32 31 29 29 28 26 25 25
52 51 51 51 50 48 47 45 44 44 45 47 47 46 44 43 40 37 36 37 38 41 43 43 42 40 39 41 42 43 42 42 42 42 40 39 38 36 35 34 34 33 33 32 33 34 34 35 36 35 34 33 33 32 31 29 28 28 27 26 26 26
53 52 52 52 51 49 47 45 43 43 44 46 46 45 44 43 40 38 37 38 40 43 44 45 44 44 43 43 43 43 43 43 43 43 42 42 41 39 36 35 33 32 32 32 33 34 35 35 35 34 34 33 33 32 30 28 27 28 27 27 27 26
54 53 52 51 50 49 46 44 42 42 44 45 45 44 43 41 39 37 37 39 41 44 46 47 48 48 47 45 44 44 43 43 42 42 42 42 41 38 34 32 31 31 32 33 34 34 34 33 33 33 33 33 32 30 28 27 27 28 28 28 27 27
57 55 52 51 52 52 48 45 44 45 45 45 45 43 43 40 36 36 38 40 43 45 46 47 48 47 46 45 44 42 38 37 37 37 38 38 37 33 30 29 29 31 32 33 33 33 33 32 31 32 32 32 30 28 27 28 29 29 29 28 27 27
59 57 55 53 52 52 49 47 48 48 47 48 47 44 42 39 36 38 39 40 42 44 44 45 46 43 40 39 35 30 27 28 30 31 32 33 32 30 29 29 30 31 32 32 32 32 31 30 30 30 31 30 29 27 28 29 29 29 28 28 28 29
61 60 59 57 53 50 48 47 48 49 49 49 47 44 41 38 38 38 39 40 40 40 39 40 38 35 33 32 27 26 25 25 27 27 27 29 31 31 31 31 31 32 32 31 31 30 28 27 29 30 31 31 29 28 29 31 30 28 28 28 29 30
63 63 62 61 57 52 49 47 46 46 47 47 46 43 40 39 39 35 35 36 34 33 34 33 31 30 32 34 33 32 30 27 29 30 30 30 33 35 33 31 32 32 31 30 29 28 28 29 31 32 33 31 29 29 31 31 30 29 28 29 29 30
63 63 63 62 60 56 54 52 49 47 44 45 48 46 42 42 40 35 32 30 30 34 32 28 29 31 31 33 35 35 32 30 32 35 36 34 33 33 33 32 31 31 30 29 30 31 32 33 33 32 31 29 29 30 30 29 31 31 30 30 30 31
61 62 61 60 60 57 57 58 57 54 48 46 47 45 44 42 37 35 35 35 38 39 29 24 27 28 30 32 32 33 33 35 36 37 38 36 33 32 34 34 32 31 31 31 32 32 32 31 30 30 29 29 30 31 30 31 32 32 31 32 32 32
60 61 59 59 59 58 58 59 62 62 57 53 49 45 47 43 39 42 45 46 44 39 31 28 28 27 31 33 32 34 38 40 40 39 38 37 35 34 34 34 33 32 31 30 30 29 27 25 25 28 31 32 32 31 32 33 33 32 32 33 34 34
59 60 59 59 59 60 60 61 64 65 62 62 55 49 50 45 45 47 47 48 43 35 34 33 31 30 32 33 32 35 40 42 42 40 38 38 37 35 34 34 32 31 30 28 28 28 27 25 27 31 34 35 34 33 34 35 34 32 33 34 34 35
57 58 58 59 60 61 62 62 64 65 64 64 56 51 50 45 47 46 43 45 39 31 30 30 31 31 29 30 29 32 35 38 41 42 41 41 39 36 34 33 32 32 32 30 29 30 30 32 34 36 37 36 36 36 36 35 34 33 33 34 35 37
56 56 56 58 59 61 62 63 64 63 63 62 54 51 50 45 46 44 39 40 36 30 28 27 29 29 27 29 29 31 33 34 37 38 40 42 40 37 35 34 33 33 34 33 33 34 35 36 37 37 37 38 38 37 36 35 34 34 35 36 37 38
55 55 55 56 58 60 62 62 63 62 61 58 51 47 46 44 44 41 35 34 33 32 30 28 28 29 30 32 32 33 35 36 36 37 39 40 39 37 36 36 35 34 34 34 35 35 36 36 36 37 38 38 37 37 36 35 35 36 37 38 39 40
53 53 54 55 56 57 59 60 61 62 61 57 50 44 41 40 40 38 33 30 31 33 33 31 31 32 34 36 37 38 38 38 37 37 39 40 40 39 38 38 36 33 33 34 34 34 35 37 38 39 38 36 35 35 35 36 37 38 39 39 40 42
49 50 52 53 53 54 56 57 58 59 58 57 52 46 42 40 39 37 34 32 33 36 38 38 37 39 41 42 42 42 42 41 39 38 40 42 42 43 43 42 39 37 36 36 36 36 37 38 39 37 36 35 35 36 37 38 38 39 39 40 42 43
40 42 46 50 51 51 52 53 54 55 54 55 52 48 46 44 42 39 37 38 42 45 45 43 41 42 43 43 45 46 45 44 43 42 42 43 44 45 46 45 43 42 42 42 42 41 41 40 40 40 39 39 39 39 39 39 38 38 39 40 41 41
29 29 37 44 46 47 47 48 48 48 48 49 49 49 50 49 47 44 43 47 51 50 46 41 38 39 39 40 42 44 46 47 47 46 44 44 44 45 47 46 45 45 44 43 42 42 42 42 42 42 42 42 41 40 40 39 38 38 37 37 39 40
29 27 31 37 40 41 39 37 36 37 39 41 44 46 50 53 53 52 53 55 52 46 40 38 36 36 37 37 38 40 43 44 45 45 45 44 43 44 45 45 44 42 40 39 38 38 38 39 39 40 40 40 40 39 39 38 38 38 38 40 41 42
34 30 29 33 34 29 23 23 26 28 30 33 37 40 45 50 53 53 53 51 46 40 37 36 35 35 35 36 37 39 39 40 40 41 42 43 43 43 43 43 42 39 37 36 37 37 37 37 37 38 39 38 38 38 38 38 39 40 41 42 42 43
34 28 29 32 27 17 15 20 22 23 26 28 32 35 34 37 41 43 43 40 37 35 35 35 35 34 33 33 35 38 38 39 39 40 40 41 41 41 41 40 39 38 37 36 37 37 37 38 38 38 38 37 37 38 39 40 40 41 42 42 43 44
33 29 31 30 24 24 29 31 25 25 31 32 32 34 30 27 29 30 31 32 34 34 34 34 34 33 33 33 33 35 37 38 38 38 37 37 37 38 38 38 37 36 36 35 35 36 37 37 37 37 38 38 38 39 40 40 41 41 41 42 43 44
35 31 31 29 31 34 34 33 29 29 33 32 32 36 33 29 29 29 30 30 32 34 34 33 33 33 33 33 33 32 33 34 34 33 32 32 33 34 34 34 35 35 34 33 34 35 36 37 37 38 38 39 39 38 39 40 40 40 42 43 44 43
39 31 28 32 38 35 29 32 36 34 32 29 34 41 40 37 36 35 34 32 30 31 32 33 33 33 34 33 31 29 29 30 31 31 30 30 30 30 30 31 32 31 31 31 32 34 35 36 37 37 38 38 38 38 38 39 40 42 43 44 43 42
43 32 29 36 39 33 27 31 37 38 33 28 32 41 43 43 41 38 37 36 34 33 33 33 33 33 33 31 28 27 26 27 29 30 30 30 29 29 29 29 30 30 29 29 31 32 33 34 36 37 37 38 39 38 39 40 42 44 44 43 42 40
Wind_Direction
278 281 281 277 276 276 278 282 286 293 297 297 297 297 300 303 305 305 305 306 306 305 305 304 302 301 302 303 304 306 309 313 316 316 319 321 318 311 305 305 308 308 306 305 307 307 307 307 306 305 303 303 303 308 318 327 332 335 336 336 335 334
273 278 280 276 275 276 278 281 286 291 294 295 296 297 298 301 302 302 303 304 306 304 301 301 299 298 297 298 300 302 305 309 312 312 315 319 317 310 303 305 309 307 303 302 305 306 306 306 305 303 301 300 302 308 318 326 332 335 335 335 335 336
268 274 278 278 277 275 277 283 288 291 293 294 296 296 296 298 299 300 301 303 306 305 301 299 297 295 294 294 295 298 302 304 308 309 311 315 316 309 301 303 308 304 299 299 302 304 305 306 305 303 299 298 300 308 317 324 331 334 335 335 335 335
269 272 274 276 274 273 278 285 288 288 289 293 297 298 296 295 296 298 300 302 305 305 303 300 297 295 293 291 292 296 299 301 305 307 308 310 312 309 301 301 306 302 297 297 299 300 302 305 304 301 297 296 299 306 315 323 329 332 333 334 334 334
270 271 272 270 269 271 277 280 280 280 286 292 297 297 295 293 295 297 299 302 304 305 304 300 296 295 292 289 291 294 297 298 301 304 306 306 306 306 301 300 303 301 295 294 295 296 298 302 302 298 296 296 298 304 313 322 328 329 331 332 332 331
270 272 273 271 270 270 272 273 273 278 285 288 291 294 293 292 295 298 301 303 303 306 305 300 296 294 291 290 291 293 295 296 299 301 303 303 301 301 299 299 301 298 293 290 290 292 296 299 301 299 297 297 298 303 311 321 325 325 327 328 328 329
269 271 272 274 277 276 274 274 273 276 281 284 286 290 292 291 293 298 301 302 302 305 306 301 296 295 293 292 291 292 293 294 297 298 298 299 298 297 297 298 299 296 290 286 288 292 296 298 300 298 296 296 298 302 309 319 322 322 324 325 325 328
264 267 269 273 278 280 280 278 274 274 277 280 283 286 288 289 292 298 299 298 298 303 305 302 298 297 295 294 292 291 292 293 295 294 294 295 296 296 296 298 298 294 287 285 288 293 296 297 297 296 295 294 297 301 308 317 320 319 321 322 323 327
264 268 271 273 275 276 279 279 275 273 275 277 280 283 285 288 293 298 297 294 296 300 303 304 302 300 298 297 294 291 291 292 292 291 291 292 293 294 296 297 296 292 288 287 290 293 295 296 295 295 295 294 295 299 305 313 316 316 318 319 322 325
268 271 273 275 276 275 277 277 273 272 274 276 279 282 287 292 295 296 295 292 294 298 301 304 305 302 299 298 296 292 290 290 289 288 288 290 291 293 294 295 295 293 290 289 290 292 294 296 296 296 296 294 294 297 303 310 311 312 315 316 320 323
270 273 274 277 278 277 277 277 273 271 272 275 277 281 289 294 293 293 293 293 296 299 302 305 305 300 298 297 296 292 288 286 286 286 287 288 290 292 293 294 296 295 290 288 289 291 294 296 297 296 295 294 293 296 303 306 307 310 313 314 317 319
272 274 276 277 277 277 277 278 276 273 271 274 277 280 288 291 291 292 293 295 299 302 305 307 306 301 297 297 296 293 288 284 283 283 285 287 290 291 293 294 296 293 288 287 289 291 293 294 294 294 294 293 293 296 300 302 305 309 311 311 314 316
273 276 278 278 276 275 276 278 278 274 270 271 275 279 284 286 286 288 291 296 301 304 308 310 307 302 299 298 297 294 289 284 282 282 283 285 287 289 292 294 294 291 287 286 288 289 290 290 291 292 292 291 292 294 295 298 304 307 308 309 311 313
271 273 275 276 275 272 274 277 275 270 267 269 273 278 280 279 281 285 289 296 301 305 309 310 308 304 301 298 295 291 287 284 282 281 282 283 284 287 291 293 292 289 286 286 287 286 285 286 288 289 288 289 290 291 293 298 304 306 306 307 309 310
268 270 270 272 271 269 271 272 268 264 266 270 273 275 275 277 282 288 293 298 301 304 306 308 307 305 302 297 291 288 286 284 282 281 282 283 284 287 289 289 287 286 286 287 286 283 282 283 284 284 285 286 287 290 294 300 305 305 305 306 309 309
265 266 266 266 267 268 268 267 264 262 264 268 269 271 272 277 286 294 298 300 302 304 305 306 306 305 302 296 290 287 285 284 283 282 282 283 284 286 285 283 284 287 287 286 284 281 279 280 280 280 282 283 286 290 297 303 305 306 305 306 308 307
263 263 263 263 263 266 267 265 264 262 263 266 267 268 271 278 289 296 298 301 304 305 305 306 307 306 303 299 291 280 278 280 280 280 279 279 281 281 281 282 285 287 287 285 282 278 276 277 278 279 280 282 286 292 298 304 305 304 304 305 306 305
261 261 261 261 260 260 261 261 262 261 262 265 266 266 271 281 291 296 297 299 302 302 304 308 306 305 301 296 285 273 275 274 273 276 274 274 279 281 282 284 285 285 283 282 278 275 275 278 279 280 281 283 288 294 300 303 302 301 302 302 303 303
259 259 259 259 258 256 252 253 256 259 262 263 264 267 273 284 293 294 293 294 297 301 307 307 299 296 293 288 284 281 279 271 267 270 269 275 284 285 283 283 283 283 282 280 276 273 275 280 281 281 281 284 290 296 301 301 298 299 300 300 302 302
258 258 258 258 258 255 250 248 250 255 262 264 264 268 275 286 292 290 288 288 293 302 306 299 290 290 285 282 286 283 277 271 268 268 269 276 283 284 284 285 284 282 280 278 275 276 279 281 281 281 282 285 291 297 300 297 295 298 300 299 301 301
258 257 257 256 256 254 250 248 248 251 258 263 264 269 276 285 288 283 285 286 290 296 296 287 283 281 276 276 280 276 272 272 271 270 272 275 277 279 284 287 286 283 281 279 279 281 282 282 281 282 284 287 291 296 296 294 295 298 298 299 300 300
256 256 256 255 254 252 249 247 248 249 253 258 263 270 275 278 280 278 281 283 286 288 282 279 276 267 267 271 270 268 271 272 271 271 272 273 274 276 280 285 287 284 282 281 282 285 285 281 281 284 285 288 290 293 293 294 296 296 296 297 297 296
257 256 255 254 253 252 250 248 248 248 252 258 263 270 272 272 275 276 278 279 282 283 280 279 274 264 265 266 266 272 276 274 272 273 275 275 275 275 276 280 284 282 277 276 279 283 282 278 280 283 284 286 288 290 292 293 294 294 294 294 293 292
257 256 255 255 253 253 252 250 250 249 253 259 264 268 269 270 274 274 274 275 278 279 279 278 273 267 263 260 269 283 286 280 276 276 276 276 276 275 274 275 277 278 276 273 271 272 271 271 275 280 283 285 287 290 292 292 293 293 293 292 292 290
259 258 256 256 255 254 253 252 252 252 254 258 262 266 266 268 271 270 269 270 271 273 276 274 270 266 256 254 272 290 294 290 286 282 278 275 275 274 272 272 272 273 275 273 270 269 269 272 276 279 282 283 286 289 290 291 292 292 292 292 291 289
260 260 258 257 256 256 255 254 254 254 254 256 257 259 263 265 265 265 264 265 269 273 275 271 266 262 253 256 273 287 292 292 291 288 280 275 273 271 270 271 271 272 272 272 272 273 274 275 275 277 279 281 285 287 288 289 290 290 291 291 290 288
263 263 261 260 259 258 258 257 256 255 255 256 253 249 255 260 259 259 261 264 271 276 279 275 265 259 257 262 273 282 287 288 288 285 277 272 269 267 267 268 268 268 269 271 272 272 272 271 271 274 278 281 284 285 285 286 287 288 290 290 289 287
264 265 265 263 261 260 260 260 259 258 257 256 252 245 247 255 256 257 260 265 271 277 281 279 272 269 268 269 272 276 280 282 282 281 275 271 268 265 264 264 263 262 263 267 270 270 269 269 271 275 279 281 282 282 282 284 286 288 289 289 287 286
265 271 274 271 266 262 261 261 261 262 261 260 256 247 245 252 256 258 262 270 277 281 282 280 277 277 276 274 272 272 274 275 277 279 277 273 269 264 263 263 261 260 261 264 267 269 271 272 274 277 280 281 282 283 284 286 288 288 288 287 287 286
255 267 274 272 271 267 264 264 266 268 268 265 262 253 246 250 256 260 266 274 281 282 280 277 276 279 280 278 275 271 270 271 273 275 275 272 267 263 262 262 262 263 264 265 267 269 271 273 275 277 279 280 281 283 285 286 287 287 287 288 289 290
227 236 251 260 268 270 268 272 277 280 280 276 270 261 252 251 256 264 271 277 279 278 274 273 275 280 283 281 276 272 271 271 271 271 271 269 266 262 260 260 261 262 264 266 268 270 271 273 274 276 278 279 281 282 283 284 284 284 285 288 290 292
223 225 239 252 263 270 275 282 285 286 287 284 277 269 261 259 261 266 272 275 273 270 270 273 278 284 289 287 279 273 272 271 269 267 267 266 263 260 258 258 258 258 258 259 262 266 268 270 272 275 276 279 281 282 281 281 281 282 284 286 290 292
229 227 238 249 253 249 242 251 260 265 265 263 265 268 264 260 262 265 268 267 263 264 271 277 281 286 295 297 285 275 271 269 267 265 264 263 260 257 256 256 257 257 256 256 258 261 263 267 271 274 277 279 281 280 279 279 280 282 284 287 291 292
228 229 241 245 234 223 223 229 236 247 247 242 248 259 261 256 257 258 258 258 259 266 275 281 284 288 297 303 296 283 274 268 266 264 261 259 256 254 254 255 257 257 257 257 258 260 263 266 270 273 276 278 277 276 276 278 280 283 286 290 291 291
226 229 239 234 219 218 225 233 239 241 241 240 245 254 257 260 262 258 254 257 262 269 275 280 286 290 295 302 301 292 281 273 268 264 259 255 253 252 253 254 256 257 258 257 257 258 262 265 268 271 272 272 273 274 276 279 283 286 289 291 290 288
224 226 232 224 217 220 226 237 241 234 232 242 251 253 253 260 265 260 257 261 264 269 275 280 286 291 293 297 298 295 289 281 274 267 262 258 254 252 253 254 255 256 257 257 257 259 262 265 266 268 269 270 272 275 278 282 286 288 290 290 288 286
221 223 223 217 220 230 233 239 238 228 223 232 244 250 253 257 259 256 256 260 263 268 276 281 286 289 291 293 294 295 296 293 285 276 269 264 260 255 254 254 254 255 257 258 258 260 262 263 264 266 267 270 273 276 280 284 287 288 288 287 284 283